Location: Podia
(1.5569°N, 32.3469°E)
Time: 12:58:25
(UTC+00:00)

Altair - All Passes

Search period start: 26 September 2020 00:00
Search period end: 06 October 2020 00:00
Orbit: 1501 x 1682 km, 47.2° (Epoch: 25 September)

Date Brightness Start Highest point End Pass type
(mag) Time Alt. Az. Time Alt. Az. Time Alt. Az.
26 Sep - 06:51:54 10° S 06:58:47 22° SE 07:05:49 10° E daylight
26 Sep - 08:53:52 10° SW 09:03:23 74° NW 09:13:18 10° NE daylight
26 Sep - 11:04:08 10° WNW 11:08:45 14° NW 11:13:28 10° NNW daylight
26 Sep - 19:38:53 10° NNW 19:48:33 58° NE 19:57:49 10° SE visible
26 Sep - 21:45:00 10° WNW 21:53:05 30° SW 22:00:58 10° S night (unlit)
27 Sep - 06:27:18 10° S 06:33:34 19° SE 06:39:56 10° E daylight
27 Sep - 08:28:42 10° SW 08:38:13 82° NW 08:48:07 10° NE daylight
27 Sep - 10:37:56 10° W 10:43:26 16° NW 10:49:02 10° N daylight
27 Sep - 19:13:49 10° NNW 19:23:21 51° NE 19:32:31 10° ESE visible
27 Sep - 21:19:24 10° WNW 21:27:53 34° SW 21:36:09 10° SSE night (unlit)
28 Sep - 06:02:50 10° S 06:08:21 17° SE 06:13:56 10° E daylight
28 Sep - 08:03:33 10° SW 08:13:02 89° SE 08:22:56 10° NE daylight
28 Sep - 10:11:56 10° W 10:18:07 19° NW 10:24:28 10° N daylight
28 Sep - 18:48:46 10° NNW 18:58:09 46° NE 19:07:11 10° ESE visible
28 Sep - 20:53:53 10° WNW 21:02:42 39° SW 21:11:17 10° SSE night (unlit)
29 Sep - 05:38:32 10° SSE 05:43:06 14° SE 05:47:43 10° ESE daylight
29 Sep - 07:38:25 10° SW 07:47:52 81° SE 07:57:42 10° NE daylight
29 Sep - 09:46:05 10° W 09:52:50 21° NW 09:59:47 10° N daylight
29 Sep - 18:23:45 10° NNW 18:32:56 41° NE 18:41:47 10° ESE visible
29 Sep - 20:28:25 10° WNW 20:37:32 44° SW 20:46:23 10° SSE visible
30 Sep - 05:14:35 10° SSE 05:17:50 12° SE 05:21:07 10° ESE daylight
30 Sep - 07:13:20 10° SSW 07:22:43 73° SE 07:32:27 10° NE daylight
30 Sep - 09:20:21 10° W 09:27:34 24° NW 09:35:01 10° N daylight
30 Sep - 17:58:47 10° NNW 18:07:43 37° NE 18:16:21 10° ESE visible
30 Sep - 20:02:58 10° WNW 20:12:21 49° SW 20:21:26 10° SSE visible
01 Oct - 06:48:17 10° SSW 06:57:33 65° SE 07:07:10 10° NE daylight
01 Oct - 08:54:41 10° W 09:02:19 27° NW 09:10:11 10° N daylight
01 Oct - 17:33:50 10° NNW 17:42:29 33° NE 17:50:51 10° ESE visible
01 Oct - 19:37:35 10° NW 19:47:11 55° SW 19:56:27 10° SSE visible
02 Oct - 06:23:16 10° SSW 06:32:24 58° SE 06:41:50 10° NE daylight
02 Oct - 08:29:06 10° WSW 08:37:05 30° NW 08:45:19 10° N daylight
02 Oct - 17:08:56 10° N 17:17:14 29° NE 17:25:18 10° ESE visible
02 Oct - 19:12:14 10° NW 19:22:00 62° SW 19:31:26 10° SSE visible
03 Oct - 05:58:17 10° SSW 06:07:14 51° SE 06:16:29 10° NE daylight
03 Oct - 08:03:35 10° WSW 08:11:50 34° NW 08:20:24 10° NNE daylight
03 Oct - 16:44:04 10° N 16:51:59 26° NE 16:59:40 10° E visible
03 Oct - 18:46:56 10° NW 18:56:50 69° SW 19:06:23 10° SSE visible
03 Oct - 20:58:59 10° WSW 21:01:49 11° SW 21:04:39 10° SSW night (unlit)
04 Oct - 05:33:20 10° SSW 05:42:05 46° SE 05:51:06 10° ENE daylight
04 Oct - 07:38:08 10° WSW 07:46:38 38° NW 07:55:27 10° NNE daylight
04 Oct - 16:19:16 10° N 16:26:42 23° NE 16:33:58 10° E visible
04 Oct - 18:21:39 10° NW 18:31:40 77° SW 18:41:19 10° SE visible
04 Oct - 20:32:09 10° WSW 20:36:33 14° SW 20:40:53 10° SSW visible
05 Oct - 05:08:24 10° SSW 05:16:55 40° SE 05:25:38 10° ENE daylight
05 Oct - 07:12:44 10° WSW 07:21:26 43° NW 07:30:28 10° NNE daylight
05 Oct - 15:54:32 10° N 16:01:25 20° NE 16:08:09 10° E visible
05 Oct - 17:56:25 10° NW 18:06:29 85° SW 18:16:12 10° SE visible
05 Oct - 20:05:49 10° W 20:11:17 16° SW 20:16:40 10° SSW visible
